Flag for Czech Republic Weather past 2 weeks in Brno, Czech Republic

Now
89 °F

Scattered clouds.


Feels Like: 88 °F
Forecast: 64 / 90 °F
Wind: 6 mph from Southeast

Location: Brno / Turany

Current Time: Aug 4, 2015 at 4:41:08 PM

Latest Report: Aug 4, 2015 at 4:00 PM


Visibility: 25 mi

Pressure: 29.89 "Hg

Humidity: 39%

Dew point: 60 °F

Location of BrnoLocation

Historic Weather in Brno — Graph

°F

Brno temperature yesterday

Maximum temperature yesterday: 87 °F (at 4:00 PM)
Minimum temperature yesterday: 62 °F (at 6:00 AM)
Average temperature yesterday: 74 °F

Past Weeks' High & Low Weather Summary

 TemperatureHumidityPressure
High96 °F (Jul 22, 5:00 PM)99% (Jul 28, 2:00 AM)30.13 "Hg (Jul 28, 2:00 AM)
Low54 °F (Jul 30, 6:00 AM)28% (Jul 22, 4:00 PM)29.66 "Hg (Jul 25, 5:00 PM)
Average72 °F56%29.91 "Hg
* Reported Jul 20 3:00 PM — Aug 4 3:00 PM, Brno, Weather by CustomWeather, © 2015

Note: Actual official high and low records may vary slightly from our data, if they occured in-between our weather recording intervals... More about our weather records

Advertising

Brno weather history for previous 24 hours

 ConditionsComfort  
Time TempWeatherWind HumidityBarometerVisibility
3:00 PM
Tue, Aug 4
89 °FScattered clouds.7 mph36%29.90 "Hg25 mi
2:00 PM87 °FPartly sunny.6 mph39%29.92 "Hg25 mi
1:00 PM86 °FScattered clouds.5 mph42%29.93 "Hg22 mi
12:00 PM85 °FPassing clouds.5 mph44%29.96 "Hg19 mi
11:00 AM83 °FPassing clouds.3 mph49%29.98 "Hg19 mi
10:00 AM80 °FPassing clouds.2 mph55%29.99 "Hg12 mi
9:00 AM77 °FSunny.1 mph59%30.00 "Hg12 mi
8:00 AM71 °FSunny.2 mph72%30.02 "Hg9 mi
7:00 AM66 °FSunny.2 mph81%30.03 "Hg9 mi
6:00 AM65 °FSunny.1 mph82%30.03 "Hg9 mi
5:00 AM64 °FClear.2 mph84%30.03 "Hg16 mi
4:00 AM65 °FClear.2 mph80%30.03 "Hg19 mi
3:00 AM67 °FClear.2 mph78%30.04 "Hg19 mi
2:00 AM66 °FClear.1 mph78%30.05 "Hg19 mi
1:00 AM68 °FClear.1 mph72%30.06 "Hg19 mi
12:00 AM72 °FClear.2 mph65%30.05 "Hg19 mi
10:00 PM
Mon, Aug 3
74 °FClear.1 mph60%30.05 "Hg16 mi
9:00 PM75 °FPassing clouds.No wind59%30.04 "Hg16 mi
8:00 PM79 °FPassing clouds.5 mph51%30.02 "Hg19 mi
7:00 PM85 °FPassing clouds.3 mph41%30.01 "Hg19 mi
6:00 PM85 °FScattered clouds.3 mph42%30.02 "Hg16 mi
5:00 PM86 °FScattered clouds.5 mph42%30.02 "Hg16 mi
4:00 PM87 °FScattered clouds.5 mph39%30.03 "Hg16 mi
Weather by CustomWeather, © 2015

See weather overviewHow to use our weather pages